星链-3121 (STARLINK-3121 )

导读

STARLINK-3121是美国太空探索技术公司Starlink卫星互联网项目的卫星,于2021年11月13日发射。它属于Starlink组网卫星,旨在为全球范围尤其是偏远地区提供低延迟、高速率的宽带互联网服务,该星加入后进一步完善了Starlink低轨卫星星座的覆盖能力与服务稳定性。

Basic Information
目录编号:
49428
目录名称:
STARLINK-3121
国际标识:
2021-104W
轨道中心:
EARTH
卫星名称:
星链-3121
卫星全名:
星链-3121 (STARLINK-3121 )
卫星状态:
在轨 (已飞行1763 天)
发射日期:
2021-11-13 UTC
国别 :
美国 (US)
星等 :
--
This satellite is enrolled in the Space Conjunction Data Service (SCDS) and the current flight risk assessment level is: No High Risk
Orbit Information
数据来源 国际轨道数据
星历时间: 2026-09-11T23:19:29+0800
5小时前
查看轨道信息
半长轴: 6896.296km
偏心率: 0.0002145
轨道倾角: 53.159°
近地点辐角 120.667°
升交点赤经 110.719°
平近点角 239.453°
近地点: 516.679km
远地点: 519.639km
周期: 94.991分钟
每日圈数: 15.159293
Detailed Information
固有亮度:
5
最大亮度:
2.5
卫星平台:
Starlink v1.5
覆盖范围:
全球
运营商:
太空探索技术公司
运营商所在国:
美国
制造商(研发单位):
太空探索技术公司
制造商所在国:
美国
使用方式:
暂无
Satellite Introduction
星链(Starlink)计划是由太空探索技术公司(SpaceX)提出的一个巨型低轨卫星互联网星座项目,计划在2019年至2024年间在太空搭建由约1.2万颗卫星组成的“星链”网络,其中1584颗将部署在地球上空550千米处的近地轨道,并从2020年开始工作。该卫星仍在工作。
2D Orbit Map
3D Orbit Map
Orbit Altitude Analysis Chart
Orbit Inclination Analysis Chart
Orbit Comprehensive Analysis Chart
View Comprehensive Chart
Conjunction Data List
Event ID Objects TCA Miss Dist (km) Collision Risk Probability Collision Risk Index (CRI) Action
CDM_260912-051904-942806-739123
2026-09-12T
05:19:05+0000
2.418 km
极远距离
1.815642E-6 低风险 0.4
CDM_260913-093004-942805-836421
2026-09-13T
09:30:12+0000
2.066 km
极远距离
1.515568E-6 低风险 0.39
Miss Distance Evolution Trend with All Objects
Collision Probability Evolution Trend with All Objects